Location: Red Rock Canyon
(36.1333°N, 115.4333°W)
Time: 06:48:36
(UTC-07:00)

ISS - Visible Passes

Search period start: 27 September 2016 00:00
Search period end: 07 October 2016 00:00
Orbit: 400 x 410 km, 51.6° (Epoch: 27 September)

Date Brightness Start Highest point End Pass type
(mag) Time Alt. Az. Time Alt. Az. Time Alt. Az.
27 Sep -3.2 20:03:09 10° SW 20:06:00 65° SSW 20:06:00 65° SSW visible
28 Sep -2.7 19:11:24 10° SSW 19:14:23 35° SE 19:16:47 14° ENE visible
28 Sep -0.3 20:48:21 10° W 20:49:30 16° WNW 20:49:30 16° WNW visible
29 Sep -2.0 19:55:39 10° WSW 19:58:42 37° NW 20:00:04 24° NNE visible
30 Sep -3.2 19:03:19 10° SW 19:06:32 76° NW 19:09:49 10° NE visible
30 Sep -0.2 20:42:06 10° NW 20:43:09 12° NNW 20:43:09 12° NNW visible
01 Oct -0.8 19:48:47 10° WNW 19:51:08 18° NNW 19:53:22 11° NNE visible
02 Oct -1.6 18:55:55 10° W 18:58:50 30° NW 19:01:45 10° NNE visible
03 Oct -0.3 19:42:54 10° NW 19:43:40 11° NNW 19:44:27 10° N visible
04 Oct -0.6 18:49:10 10° WNW 18:51:13 16° NNW 18:53:17 10° NNE visible
